星链-30449 (STARLINK-30449 )

导读

STARLINK-30449是美国太空探索技术公司(SpaceX)星链互联网卫星项目中的一颗卫星,于北京时间2023年9月20日发射入轨,属于星链星座组网卫星,主要任务是为全球提供高速低延迟的宽带互联网服务,尤其覆盖偏远地区等网络基础设施薄弱区域。

基本信息
目录编号:
57903
目录名称:
STARLINK-30449
国际标识:
2023-146N
轨道中心:
EARTH
卫星名称:
星链-30449
卫星全名:
星链-30449 (STARLINK-30449 )
卫星状态:
在轨 (已飞行1087 天)
发射日期:
2023-09-20 UTC
国别 :
美国 (US)
星等 :
--
该卫星已列入 空间交会检测服务 Space Conjunction Data Service (SCDS) ,当前飞行风险评估等级: 无高风险
轨道信息
数据来源 国际轨道数据
星历时间: 2026-09-11T15:00:49+0800
9小时前
查看轨道信息
半长轴: 6861.324km
偏心率: 0.0001478
轨道倾角: 43.002°
近地点辐角 276.732°
升交点赤经 345.848°
平近点角 83.337°
近地点: 482.172km
远地点: 484.202km
周期: 94.270分钟
每日圈数: 15.275342
详细信息
固有亮度:
5
最大亮度:
0.3
卫星平台:
Starlink v2.0 mini
覆盖范围:
全球
运营商:
太空探索技术公司
运营商所在国:
美国
制造商(研发单位):
太空探索技术公司
制造商所在国:
美国
使用方式:
暂无
卫星简介
星链(Starlink)计划是由太空探索技术公司(SpaceX)提出的一个巨型低轨卫星互联网星座项目,计划在2019年至2024年间在太空搭建由约1.2万颗卫星组成的“星链”网络,其中1584颗将部署在地球上空550千米处的近地轨道,并从2020年开始工作。该卫星仍在工作。
2D轨道图
3D轨道图
轨道高度分析图
轨道倾角分析图
轨道综合分析图
查看轨道综合分析图
交会数据列表
事件ID 空间交会对象 最接近时刻(TCA) 交会距离 交会风险概率(CRP) 交会风险指数(CRI) 操作
CDM_260913-142105-545105-790321
2026-09-13T
14:21:22+0000
0.355 km
远距离
1.271076E-4 高风险 0.77
CDM_260913-060005-706405-790322
2026-09-13T
06:00:56+0000
0.663 km
远距离
7.821652E-5 中风险 0.73
CDM_260912-183805-790306-221521
2026-09-12T
18:38:19+0000
0.566 km
远距离
6.561732E-5 中风险 0.71
CDM_260911-231505-790306-801121
2026-09-11T
23:15:46+0000
0.779 km
远距离
3.937387E-5 中风险 0.67
CDM_260912-192105-790306-740421
2026-09-12T
19:21:48+0000
0.760 km
远距离
3.784909E-5 中风险 0.67
CDM_260913-133405-545105-790321
2026-09-13T
13:34:17+0000
0.774 km
远距离
1.35624E-5 中风险 0.58
CDM_260912-174505-790306-228621
2026-09-12T
17:45:03+0000
1.085 km
极远距离
1.303626E-5 中风险 0.57
CDM_260912-110105-790306-801121
2026-09-12T
11:01:53+0000
1.108 km
极远距离
1.194632E-5 中风险 0.57
CDM_260912-212305-706405-790322
2026-09-12T
21:23:07+0000
1.232 km
极远距离
1.011332E-5 中风险 0.55
CDM_260913-223305-378105-790321
2026-09-13T
22:33:19+0000
1.265 km
极远距离
9.951577E-6 低风险 0.55
与全量物体交会距离演化趋势
与全量物体交会风险概率演化趋势